Weather Roundup
Issued by NWS

Home | Current Version | Previous Version | Text Only | Print | Product List | Glossary On
Versions: 1 2 3 4 5 6 7 8 9 10 11 12 13 14 15 16 17 18 19 20 21 22 23 24 25 26 27 28 29 30 31 32 33 34 35 36 37 38 39 40 41 42 43 44 45 46 47 48 49 50
594
NZUS93 KARX 242259
HRRWXR

CURRENT HOURLY OBSERVATIONS ACROSS
MUCH OF THE UPPER MISSISSIPPI VALLEY
NATIONAL WEATHER SERVICE LA CROSSE WI
600 PM CDT SAT JUN 24 2017


...SOUTHEAST MINNESOTA...


CITY           SKY/WX    TMP DP  RH WIND       PRES   REMARKS
ROCHESTER      SUNNY     58  50  75 NW9       30.05F
ROCHESTER/MAYO FAIR      59  47  63 NW16G23   30.03F
WINONA         CLOUDY    54  48  82 CALM      30.03F
AUSTIN         SUNNY     63  46  55 NW10      30.04S
ALBERT LEA     MOSUNNY   66  39  37 NW13G24   30.05S
DODGE CENTER   SUNNY     63  45  51 NW17G24   30.04S
PRESTON        MOSUNNY   56  47  74 N5        30.05R
OWATONNA       MOSUNNY   64  45  48 NW20G30   30.05S
FARIBAULT      MOSUNNY   64  45  48 NW21G33   30.05S
$$

...ELSEWHERE IN MINNESOTA...


CITY           SKY/WX    TMP DP  RH WIND       PRES   REMARKS
MINNEAPOLIS    PTSUNNY   63  42  46 NW15      30.02S
INTNL FALLS    CLOUDY    61  49  64 NW10      29.97R
DULUTH         CLOUDY    59  48  67 NW10      29.96R
RED WING       MOSUNNY   63  37  39 NW14G23   30.00S
REDWOOD FALLS  CLOUDY    67  42  40 NW13G23   30.08R
MANKATO        CLOUDY    64  42  44 NW22G29   30.06S
WORTHINGTON    MOSUNNY   65  41  41 NW15G31   30.12S
FAIRMONT       PTSUNNY   65  41  41 NW18G24   30.09R
$$

...SOUTHWEST WISCONSIN...


CITY           SKY/WX    TMP DP  RH WIND       PRES   REMARKS
LA CROSSE      TSTM      57  49  74 N21G33    30.04R
PRAIRIE DU CHI LGT RAIN  57  51  80 E3        30.03F
BOSCOBEL       CLOUDY    58  53  84 S5        30.04F
LONE ROCK      LGT RAIN  56  51  84 SW3       30.03R
PLATTEVILLE    PTSUNNY   66  47  49 W31G41    30.06R
FORT MC COY    CLOUDY    59  49  67 SW6       30.01F
MAUSTON-NEW LI RAIN      55  49  82 SW12G33   30.03R
VIROQUA        MOCLDY    56  50  80 CALM      30.02F
WIS DELLS      PTSUNNY   64  41  42 W17G24    30.00R
$$

...ELSEWHERE IN WISCONSIN...


CITY           SKY/WX    TMP DP  RH WIND       PRES   REMARKS
MILWAUKEE      MOSUNNY   72  41  32 W17G28    29.96S
MADISON        MOSUNNY   68  44  42 W9        29.98S
GREEN BAY      SUNNY     69  43  38 W16       29.91F
EAU CLAIRE     NOT AVBL
BLACK RVR FLS  MOCLDY    64  40  41 W13G20    29.99R
MEDFORD        MOSUNNY   61  43  52 W12G23    29.95F
WAUSAU         SUNNY     62  45  53 NW10      29.93F
WIS RAPIDS     PTSUNNY   67  42  40 W14G29    29.97S
MARSHFIELD     CLOUDY    61  43  51 W10G22    29.95S
RICE LAKE      SUNNY     62  42  48 W10       29.99F
$$

...NORTHEAST IOWA...


CITY           SKY/WX    TMP DP  RH WIND       PRES   REMARKS
WATERLOO       MOSUNNY   71  40  32 W16G26    30.00F
DUBUQUE        CLOUDY    69  41  36 W22G29    30.02F
DECORAH        RAIN      55  54  94 CALM      30.04R
MASON CITY     MOSUNNY   68  42  38 NW24G33   30.07R
CHARLES CITY   MOSUNNY   66  48  52 NW17G24   30.04R
OELWEIN        CLOUDY    66  52  59 W9        30.02F
$$

...ELSEWHERE IN IOWA...


CITY           SKY/WX    TMP DP  RH WIND       PRES   REMARKS
DES MOINES     MOSUNNY   79  37  22 W20       30.06F
IOWA CITY      PTSUNNY   75  44  33 SW10      30.06F
FORT DODGE     PTSUNNY   72  41  33 NW12G23   30.08S
MARSHALLTOWN   MOSUNNY   74  43  32 NW20G30   30.04S
CEDAR RAPIDS   PTSUNNY   71  46  40 W14       30.02F
$$

...NORTHERN ILLINOIS...


CITY           SKY/WX    TMP DP  RH WIND       PRES   REMARKS
CHICAGO-OHARE  MOSUNNY   72  40  31 NW23G31   29.99S
CHICAGO-MIDWAY MOSUNNY   73  42  32 W18G29    30.00R
MOLINE         SUNNY     74  40  29 W16G26    30.05F
ROCKFORD       MOSUNNY   72  42  34 NW17G25   30.02F
PEORIA         SUNNY     73  40  30 NW14G22   30.08S
$$

NOTE: "FAIR" INDICATES FEW OR NO CLOUDS BELOW 12,000 FEET WITH NO
SIGNIFICANT WEATHER AND/OR OBSTRUCTIONS TO VISIBILITY. WIND
SPEEDS ARE IN MILES-PER-HOUR.




USA.gov is the U.S. government's official web portal to all federal, state and local government web resources and services.